Pagina principale
METAR-TAF:

METAR-TAF

Aeroporti :

East Hampton Airport

East Hampton, New York, Stati Uniti

latitudine: 40-57-34N, longitudine: 072-15-07W, altezza: 17 m

Osservazione

Il bollettino è stato emesso 29 minuti fa, alle 07:55 UTC
Vento calmo
Temperature 20°C
Umidità 100%
Pressione 1015 hPa
Visibilità: 16.1 km
Cielo sereno

METAR: KHTO 160755Z AUTO 00000KT 10SM CLR 20/20 A2997 RMK AO2 T02020195

Ora: 04:24 (08:24 UTC)


TAF: mancante

Osservazioni e previsioni meteorologiche di più di 4000 aeroporti (messaggi METAR e TAF).

Le stazioni disponibili sono rappresentate dai dischi gialli e rossi sulla carta.

Puntare il mouse per vedere il nome della stazione.

Clicca sopra per visualizzare le osservazioni e previsioni meteorologiche.

Per cambiare la mappa : fare clic sui pulsanti verdi con una croce nera per ingrandire, il pulsante verde con un trattino per diminuire, o sulla freccia verde per le mappe adiacenti.


METAR-TAF: